St. Johnsbury, VT

12:21 AM EST on December 18, 2017 (GMT -0500)
St. Johnsbury

Weather History for K1V4 - May, 2013

Change the Weather History Date:

Thursday, May 23, 2013

  Actual Average Record
Temperature  
Mean Temperature 66 °F 59 °F  
Max Temperature 75 °F 71 °F 92 °F (1977)
Min Temperature 57 °F 47 °F 27 °F (1935)
Degree Days  
Heating Degree Days 0 7  
Month to date heating degree days 237  
Since 1 July heating degree days 7656  
Cooling Degree Days 1 1  
Month to date cooling degree days 1 6  
Year to date cooling degree days 1 7  
Growing Degree Days 15 (Base 50)    
Moisture  
Dew Point 60 °F    
Average Humidity 87    
Maximum Humidity 100    
Minimum Humidity 73    
Precipitation  
Precipitation 0.55 in 0.11 in 1.23 in (1974)
Month to date precipitation 2.32 2.43  
Year to date precipitation 10.06 12.48  
Sea Level Pressure  
Sea Level Pressure 29.75 in    
Wind  
Wind Speed - (North)    
Max Wind Speed -    
Max Gust Speed -    
T = Trace of Precipitation, MM = Missing Value Source: NWS Daily Summary

Daily Weather History Graph

Daily Weather History Graph

Search for Another Location

Airport or City:

Trip Planner

Search our weather history database for the weather conditions in past years. The results will help you decide how hot, cold, wet, or windy it might be!

Date:

Astronomy

May. 23, 2013 Rise Set
Actual Time 5:12 AM EDT 8:17 PM EDT
Civil Twilight 4:38 AM EDT 8:52 PM EDT
Nautical Twilight 3:53 AM EDT 9:37 PM EDT
Astronomical Twilight 2:59 AM EDT 10:31 PM EDT
Moon 6:43 PM EDT (5/23) 3:59 AM EDT (5/23)
Length of Visible Light 16h 14m
Length of Day
15h 04m
Waxing Gibbous, 97% of the Moon is Illuminated
May 23
Waxing Gibbous
May 25
Full
May 31
Last Quarter
Jun 8
New
Jun 16
First Quarter

Hourly Weather History & Observations

Time (EDT) Temp. Dew Point Humidity Pressure Visibility Wind Dir Wind Speed Gust Speed Precip Events Conditions
12:54 AM 59.0 °F 55.0 °F 87% 29.80 in - North - - N/A   Unknown
1:54 AM 57.9 °F 54.0 °F 87% 29.77 in - North - - N/A   Unknown
2:54 AM 57.0 °F 55.9 °F 96% 29.80 in - North - - 0.17 in   Unknown
3:54 AM 59.0 °F 57.0 °F 93% 29.77 in - North - - 0.07 in   Unknown
4:54 AM 57.9 °F 57.0 °F 97% 29.78 in - North - - N/A   Unknown
5:54 AM 57.0 °F 55.9 °F 96% 29.78 in - North - - N/A   Unknown
6:54 AM 57.9 °F 55.9 °F 93% 29.80 in - North - - N/A   Unknown
7:54 AM 57.9 °F 55.9 °F 93% 29.80 in - North - - N/A   Unknown
8:54 AM 60.1 °F 55.9 °F 86% 29.79 in - North - - N/A   Unknown
9:54 AM 63.0 °F 57.9 °F 84% 29.78 in - North - - N/A   Unknown
10:54 AM 64.9 °F 59.0 °F 81% 29.78 in - North - - N/A   Unknown
11:54 AM 69.1 °F 61.0 °F 75% 29.76 in - North - - N/A   Unknown
12:54 PM 70.0 °F 62.1 °F 76% 29.75 in - North - - N/A   Unknown
1:54 PM 72.0 °F 63.0 °F 73% 29.73 in - North - - N/A   Unknown
2:54 PM 73.9 °F 64.0 °F 71% 29.70 in - North - - N/A   Unknown
3:54 PM 73.0 °F 64.9 °F 76% 29.70 in - North - - N/A   Unknown
4:54 PM 73.9 °F 64.9 °F 73% 29.69 in - North - - N/A   Unknown
5:54 PM 73.0 °F 64.0 °F 73% 29.69 in - North - - N/A   Unknown
6:54 PM 71.1 °F 63.0 °F 75% 29.70 in - North - - N/A   Unknown
7:54 PM 69.1 °F 64.0 °F 84% 29.72 in - North - - 0.01 in   Unknown
8:54 PM 66.0 °F 64.0 °F 93% 29.72 in - North - - 0.08 in   Unknown
9:54 PM 66.0 °F 64.0 °F 93% 29.72 in - North - - 0.03 in   Unknown
10:54 PM 66.0 °F 63.0 °F 90% 29.70 in - North - - N/A   Unknown
11:54 PM 64.9 °F 63.0 °F 93% 29.70 in - North - - 0.18 in   Unknown